Weather History for Dalton, GA

Change the Weather History Date:

Thursday, February 27, 2014

  Actual Average Record
Temperature  
Mean Temperature 32 °F -  
Max Temperature 44 °F 54 °F 76 °F (1981)
Min Temperature 19 °F 32 °F 12 °F (1963)
Degree Days  
Heating Degree Days 34    
Moisture  
Dew Point 13 °F    
Average Humidity 46    
Maximum Humidity 74    
Minimum Humidity 27    
Precipitation  
Precipitation 0.00 in - - ()
Sea Level Pressure  
Sea Level Pressure 30.00 in    
Wind  
Wind Speed 6 mph (NNW)    
Max Wind Speed 15 mph    
Max Gust Speed 18 mph    
Visibility 10 miles    
Events      
Averages and records for this station are not official NWS values.
T = Trace of Precipitation, MM = Missing Value Source: NWS Daily Summary

Daily Weather History Graph

Daily Weather History Graph

Search for Another Location

Airport:

Trip Planner

Search our weather history database for the weather conditions in past years. The results will help you decide how hot, cold, wet, or windy it might be!

Date:

Astronomy

Feb. 27, 2014 Rise Set
Actual Time 7:11 AM EST 6:33 PM EST
Civil Twilight 6:45 AM EST 6:59 PM EST
Nautical Twilight 6:16 AM EST 7:28 PM EST
Astronomical Twilight 5:47 AM EST 7:57 PM EST
Moon 5:39 AM EST (2/27) 5:00 PM EST (2/27)
Length of Visible Light 12h 13m
Length of Day
11h 22m
Waning Crescent, 4% of the Moon is Illuminated
Feb 27
Waning Crescent
Mar 1
New
Mar 8
First Quarter
Mar 16
Full
Mar 23
Last Quarter

Hourly Weather History & Observations

Time (EST) Temp. Windchill Dew Point Humidity Pressure Visibility Wind Dir Wind Speed Gust Speed Precip Events Conditions
12:15 AM 28.4 °F 21.2 °F 12.2 °F 51% 29.97 in 10.0 mi NNW 6.9 mph - N/A   Clear
12:35 AM 26.6 °F 18.2 °F 12.2 °F 55% 29.97 in 10.0 mi NNW 8.1 mph - N/A   Clear
12:55 AM 26.6 °F 18.2 °F 12.2 °F 55% 29.97 in 10.0 mi NNW 8.1 mph - N/A   Clear
1:15 AM 26.6 °F 20.0 °F 12.2 °F 55% 29.97 in 10.0 mi NNW 5.8 mph - N/A   Clear
1:35 AM 26.6 °F 20.0 °F 12.2 °F 55% 29.97 in 10.0 mi NNW 5.8 mph - N/A   Clear
1:55 AM 26.6 °F 19.1 °F 12.2 °F 55% 29.99 in 10.0 mi NNW 6.9 mph - N/A   Clear
2:15 AM 26.6 °F 19.1 °F 12.2 °F 55% 29.99 in 10.0 mi NW 6.9 mph - N/A   Clear
2:35 AM 26.6 °F 19.1 °F 12.2 °F 55% 29.99 in 10.0 mi NNW 6.9 mph - N/A   Clear
2:55 AM 26.6 °F 17.5 °F 10.4 °F 51% 29.99 in 10.0 mi NNW 9.2 mph - N/A   Scattered Clouds
3:15 AM 24.8 °F 16.9 °F 10.4 °F 54% 29.98 in 10.0 mi NNW 6.9 mph - N/A   Scattered Clouds
3:35 AM 24.8 °F 17.9 °F 10.4 °F 54% 29.98 in 10.0 mi North 5.8 mph - N/A   Clear
3:50 AM 23.0 °F 17.0 °F 10.4 °F 59% 29.98 in 10.0 mi North 4.6 mph - N/A   Clear
4:15 AM 23.0 °F 14.7 °F 10.4 °F 59% 29.99 in 10.0 mi North 6.9 mph - N/A   Clear
4:35 AM 23.0 °F 14.7 °F 10.4 °F 59% 29.99 in 10.0 mi NNW 6.9 mph - N/A   Clear
4:55 AM 23.0 °F 13.9 °F 10.4 °F 59% 30.00 in 10.0 mi NNW 8.1 mph - N/A   Clear
5:15 AM 23.0 °F 14.7 °F 10.4 °F 59% 30.00 in 10.0 mi NNW 6.9 mph - N/A   Clear
5:35 AM 23.0 °F 15.8 °F 10.4 °F 59% 30.00 in 10.0 mi NNW 5.8 mph - N/A   Clear
5:55 AM 21.2 °F - 10.4 °F 63% 30.00 in 10.0 mi Calm Calm - N/A   Clear
6:15 AM 21.2 °F 16.4 °F 12.2 °F 68% 30.01 in 10.0 mi NW 3.5 mph - N/A   Clear
6:35 AM 21.2 °F 13.6 °F 12.2 °F 68% 30.01 in 10.0 mi NW 5.8 mph - N/A   Clear
6:55 AM 19.4 °F 12.8 °F 12.2 °F 74% 30.02 in 10.0 mi NW 4.6 mph - N/A   Clear
7:15 AM 19.4 °F 12.8 °F 12.2 °F 74% 30.03 in 10.0 mi NNW 4.6 mph - N/A   Clear
7:35 AM 21.2 °F 14.9 °F 12.2 °F 68% 30.03 in 10.0 mi NW 4.6 mph - N/A   Clear
7:55 AM 23.0 °F 17.0 °F 12.2 °F 63% 30.03 in 10.0 mi NW 4.6 mph - N/A   Clear
8:15 AM 23.0 °F 15.8 °F 12.2 °F 63% 30.04 in 10.0 mi NW 5.8 mph - N/A   Clear
8:35 AM 26.6 °F 20.0 °F 12.2 °F 55% 30.04 in 10.0 mi North 5.8 mph - N/A   Clear
8:55 AM 26.6 °F 18.2 °F 10.4 °F 51% 30.05 in 10.0 mi NNW 8.1 mph - N/A   Clear
9:15 AM 28.4 °F 19.7 °F 10.4 °F 47% 30.05 in 10.0 mi NNW 9.2 mph - N/A   Clear
9:35 AM 30.2 °F 22.6 °F 10.4 °F 44% 30.05 in 10.0 mi North 8.1 mph - N/A   Clear
9:55 AM 30.2 °F 26.7 °F 10.4 °F 44% 30.05 in 10.0 mi North 3.5 mph - N/A   Clear
10:15 AM 32.0 °F 21.6 °F 10.4 °F 41% 30.04 in 10.0 mi NNW 15.0 mph - N/A   Clear
10:35 AM 32.0 °F 22.5 °F 10.4 °F 41% 30.04 in 10.0 mi North 12.7 mph - N/A   Clear
10:55 AM 32.0 °F 23.6 °F 10.4 °F 41% 30.04 in 10.0 mi North 10.4 mph 18.4 mph N/A   Clear
11:15 AM 33.8 °F 28.6 °F 10.4 °F 38% 30.04 in 10.0 mi NNE 5.8 mph - N/A   Clear
11:35 AM 33.8 °F 25.8 °F 8.6 °F 35% 30.03 in 10.0 mi NW 10.4 mph - N/A   Clear
11:55 AM 35.6 °F 28.6 °F 10.4 °F 35% 30.03 in 10.0 mi NNW 9.2 mph - N/A   Clear
12:15 PM 35.6 °F 28.0 °F 12.2 °F 38% 30.02 in 10.0 mi North 10.4 mph - N/A   Clear
12:35 PM 37.4 °F 30.3 °F 10.4 °F 33% 30.01 in 10.0 mi NNW 10.4 mph - N/A   Clear
12:55 PM 37.4 °F 34.9 °F 12.2 °F 36% 30.01 in 10.0 mi NNW 3.5 mph - N/A   Clear
1:15 PM 41.0 °F - 12.2 °F 31% 30.00 in 10.0 mi Calm Calm - N/A   Clear
1:35 PM 41.0 °F 39.0 °F 12.2 °F 31% 29.99 in 10.0 mi North 3.5 mph - N/A   Clear
1:55 PM 41.0 °F 35.8 °F 12.2 °F 31% 29.98 in 10.0 mi NNW 8.1 mph - N/A   Clear
2:15 PM 42.8 °F 38.6 °F 14.0 °F 31% 29.97 in 10.0 mi NW 6.9 mph - N/A   Clear
2:35 PM 42.8 °F 40.1 °F 12.2 °F 29% 29.97 in 10.0 mi WNW 4.6 mph - N/A   Clear
2:55 PM 42.8 °F 38.6 °F 12.2 °F 29% 29.97 in 10.0 mi NNW 6.9 mph - N/A   Clear
3:15 PM 42.8 °F 41.1 °F 12.2 °F 29% 29.97 in 10.0 mi NW 3.5 mph 16.1 mph N/A   Clear
3:35 PM 44.6 °F 40.7 °F 12.2 °F 27% 29.97 in 10.0 mi NNW 6.9 mph - N/A   Clear
3:55 PM 44.6 °F 39.7 °F 14.0 °F 29% 29.96 in 10.0 mi North 9.2 mph - N/A   Clear
4:15 PM 44.6 °F 39.7 °F 14.0 °F 29% 29.96 in 10.0 mi NW 9.2 mph - N/A   Clear
4:35 PM 44.6 °F 42.2 °F 14.0 °F 29% 29.96 in 10.0 mi NNW 4.6 mph - N/A   Clear
4:55 PM 44.6 °F 40.7 °F 14.0 °F 29% 29.95 in 10.0 mi NW 6.9 mph - N/A   Clear
5:15 PM 44.6 °F 41.4 °F 14.0 °F 29% 29.95 in 10.0 mi NNW 5.8 mph - N/A   Clear
5:35 PM 44.6 °F 40.7 °F 14.0 °F 29% 29.95 in 10.0 mi NNW 6.9 mph - N/A   Clear
5:55 PM 44.6 °F 41.4 °F 14.0 °F 29% 29.96 in 10.0 mi WNW 5.8 mph - N/A   Clear
6:15 PM 44.6 °F 42.2 °F 14.0 °F 29% 29.96 in 10.0 mi WNW 4.6 mph - N/A   Clear
6:35 PM 42.8 °F - 14.0 °F 31% 29.96 in 10.0 mi Calm Calm - N/A   Clear
6:55 PM 42.8 °F 41.1 °F 14.0 °F 31% 29.97 in 10.0 mi WNW 3.5 mph - N/A   Clear
7:15 PM 39.2 °F 35.9 °F 17.6 °F 42% 29.98 in 10.0 mi NNW 4.6 mph - N/A   Clear
7:35 PM 39.2 °F - 15.8 °F 39% 29.99 in 10.0 mi Calm Calm - N/A   Clear
7:55 PM 37.4 °F 34.9 °F 15.8 °F 41% 30.00 in 10.0 mi NW 3.5 mph - N/A   Clear
8:15 PM 37.4 °F 32.8 °F 17.6 °F 45% 30.00 in 10.0 mi NW 5.8 mph - N/A   Clear
8:35 PM 35.6 °F 31.7 °F 17.6 °F 48% 30.00 in 10.0 mi NNW 4.6 mph - N/A   Clear
8:55 PM 35.6 °F - 14.0 °F 41% 30.00 in 10.0 mi Calm Calm - N/A   Clear
9:15 PM 35.6 °F 32.8 °F 15.8 °F 44% 30.01 in 10.0 mi NNW 3.5 mph - N/A   Clear
9:35 PM 32.0 °F - 17.6 °F 55% 30.02 in 10.0 mi Calm Calm - N/A   Clear
9:55 PM 33.8 °F 30.8 °F 15.8 °F 48% 30.02 in 10.0 mi NNW 3.5 mph - N/A   Clear
10:15 PM 32.0 °F 26.4 °F 17.6 °F 55% 30.02 in 10.0 mi NNW 5.8 mph - N/A   Clear
10:35 PM 32.0 °F 27.5 °F 17.6 °F 55% 30.03 in 10.0 mi NNW 4.6 mph - N/A   Clear
10:55 PM 32.0 °F 26.4 °F 17.6 °F 55% 30.03 in 10.0 mi NNW 5.8 mph - N/A   Clear
11:15 PM 32.0 °F 25.6 °F 15.8 °F 51% 30.03 in 10.0 mi NNW 6.9 mph - N/A   Clear
11:35 PM 32.0 °F 26.4 °F 15.8 °F 51% 30.03 in 10.0 mi NNW 5.8 mph - N/A   Clear
11:55 PM 32.0 °F 27.5 °F 15.8 °F 51% 30.03 in 10.0 mi NW 4.6 mph - N/A   Clear